Regional Weather Roundup
Issued by NWS

Home | Current Version | Previous Version | Graphics & Text | Print | Product List | Glossary On
Versions: 1 2 3 4 5 6 7 8 9 10 11 12 13 14 15 16 17 18 19 20 21 22 23 24 25 26 27 28 29 30 31 32 33 34 35 36 37 38 39 40 41 42 43 44 45 46 47 48 49 50
000
ASUS43 KLOT 271908
RWRIL

ILLINOIS REGIONAL WEATHER ROUNDUP
NATIONAL WEATHER SERVICE CHICAGO/ROMEOVILLE IL
100 PM CST MON FEB 27 2017

NOTE: "FAIR" INDICATES FEW OR NO CLOUDS BELOW 12,000 FEET WITH NO
SIGNIFICANT WEATHER AND/OR OBSTRUCTIONS TO VISIBILITY.

* THESE STATIONS ARE NOT UNDER NWS QUALITY CONTROL. THEY ALSO MAY NOT
  REPORT WEATHER SUCH AS PRECIPITATION OR FOG.

ILZ001-002-007-009-015-016-024-272000-
NORTHWEST ILLINOIS

CITY           SKY/WX    TMP DP  RH WIND       PRES   REMARKS
MOLINE         SUNNY     53  34  48 S12       30.06F
STERLING*      SUNNY     52  37  56 VRB6      30.09F
$$

ILZ003-004-008-010-011-017-018-272000-
NORTH CENTRAL ILLINOIS

CITY           SKY/WX    TMP DP  RH WIND       PRES   REMARKS
ROCKFORD       MOSUNNY   51  35  54 S14       30.11F
FREEPORT*      SUNNY     48  34  57 S13       30.11F
ROCHELLE*      MOSUNNY   50  38  65 S13       30.10F
DE KALB*       MOSUNNY   49  37  62 S14       30.11F
PERU*          MOSUNNY   52  32  46 SW10G16   30.10F
$$

ILZ005-006-012>014-019>023-272000-
NORTHEAST ILLINOIS

CITY           SKY/WX    TMP DP  RH WIND       PRES   REMARKS
CHICAGO-OHARE  PTSUNNY   50  34  54 SW13G20   30.12F
CHICAGO-MIDWAY PTSUNNY   50  34  54 S8        30.13F
AURORA         MOSUNNY   50  36  58 S9G17     30.11F
LANSING*       CLOUDY    49  37  63 SW6       30.14F
JOLIET*        CLOUDY    52  35  52 W6        30.13F
WAUKEGAN       SUNNY     44  33  65 SE13      30.11F
DUPAGE AIRPORT PTSUNNY   51  34  52 S14       30.11F
KANKAKEE*      MOSUNNY   53  33  46 SW8       30.13F
WHEELING       MOSUNNY   50  32  50 S15       30.13F
MORRIS*        PTSUNNY   53  34  48 SW12      30.11F
ROMEOVILLE*    PTSUNNY   51  39  63 SW8       30.12F
NORTHERLY ISL    N/A     41  34  76 E3          N/A
$$

LMZ740>746-272000-
SOUTHERN LAKE MICHIGAN

STATION/POSITION SKY/WX   TEMP    WIND        PRES    VSBY  WAVE
                          AIR SEA DIR/SP/G                  HT/PER
                          (F)     (DEG/KT/KT) (MB)    (MI)  (FT/S)
HARRISON CRIB              41     120/ 10/ 11   N/A
BURNHAM HARBOR             41     100/  5/ 10   N/A
CALUMET HARBOR             47     180/  7/ 17 1020.1F
BURNS HARBOR               48     210/ 11/ 18 1021.3F
MICHIGAN CITY              47     160/ 11/ 13   N/A
$$

ILZ025>027-034>036-040-047-049-050-058-095>099-272000-
WEST-CENTRAL ILLINOIS

CITY           SKY/WX    TMP DP  RH WIND       PRES   REMARKS
QUINCY         SUNNY     55  33  43 S7        30.05F
GALESBURG*     SUNNY     53  35  48 S10       30.07F
MACOMB*        SUNNY     55  33  44 S10G17    30.10F
JACKSONVILLE*  SUNNY     57  35  44 SW9G16    30.08F
PITTSFIELD*    SUNNY     58  36  44 S12G17    30.08F
$$

ILZ028>032-037-038-041>044-048-051>054-059>061-272000-
CENTRAL ILLINOIS

CITY           SKY/WX    TMP DP  RH WIND       PRES   REMARKS
PONTIAC        PTSUNNY   54  33  44 SW9       30.12F
BLOOMINGTON    PTSUNNY   54  35  48 SW12      30.10F
DECATUR        PTSUNNY   56  36  47 S10       30.10F
PEORIA         SUNNY     55  34  45 S13G21    30.09F
LACON*         MOSUNNY   53  33  45 S8        30.09F
LINCOLN*       CLOUDY    57  39  51 SW5       30.09F
SPRINGFIELD    MOSUNNY   60  37  42 S13G21    30.09F
TAYLORVILLE    PTSUNNY   57  38  49 SW10      30.10F
$$

ILZ033-039-045-046-055>057-062-063-272000-
EAST-CENTRAL ILLINOIS

CITY           SKY/WX    TMP DP  RH WIND       PRES   REMARKS
CHAMPAIGN      PTSUNNY   57  36  45 S12G21    30.11F
RANTOUL*       PTSUNNY   56  37  48 S10       30.11F
MATTOON        PTSUNNY   55  41  59 S10       30.11F
PARIS*         PTSUNNY   55  39  54 S10G16    30.13F
$$

ILZ079-100>102-272000-
SOUTHWEST ILLINOIS

CITY           SKY/WX    TMP DP  RH WIND       PRES   REMARKS
ALTON          MOSUNNY   57  37  47 S14       30.09F
BELLEVILLE     MOSUNNY   60  42  50 VRB6      30.07F
CAHOKIA*       SUNNY     63  38  39 S9G21     30.07F
SPARTA*        SUNNY     60  42  53 S9        30.10F
$$

ILZ064>066-069>071-074>076-080>082-084>086-088>090-092>094-272000-
SOUTH-CENTRAL ILLINOIS

CITY           SKY/WX    TMP DP  RH WIND       PRES   REMARKS
CARBONDALE     MOSUNNY   59  46  62 S12       30.11F
CAIRO*         PTSUNNY   59  47  66 S8        30.12F
EFFINGHAM*     CLOUDY    58  43  58 S6        30.12F
MARION         CLOUDY    61  46  59 S9        30.13F
MT. VERNON     CLOUDY    58  44  60 SE6       30.11F
CENTRALIA*     CLOUDY    59  44  57 S10       30.10F
SALEM*         PTSUNNY   58  42  53 S7        30.10F
METROPOLIS*    CLOUDY    61  47  59 CALM      30.12F
$$

ILZ067-068-072-073-078-083-087-091-272000-
SOUTHEAST ILLINOIS

CITY           SKY/WX    TMP DP  RH WIND       PRES   REMARKS
LAWRENCEVILLE  PTSUNNY   56  44  64 S10       30.15F
FLORA*         PTSUNNY   57  44  61 SE7       30.13F
FAIRFIELD*     PTSUNNY   55  44  66 S5        30.12F
HARRISBURG*    CLOUDY    56  46  70 S3        30.13F
ROBINSON*      PTSUNNY   55  42  60 S9        30.15F
CARMI*         CLOUDY    56  46  69 S7        30.13F
$$

ABBREVIATIONS USED IN REMARKS
   TC - TEMPERATURE IN CELSIUS
  WCI - WIND CHILL INDEX
   HX - HEAT INDEX
  VSB - VISIBILITY
$$




USA.gov is the U.S. government's official web portal to all federal, state and local government web resources and services.